Tracking 19475 objects as of 18-Jan-2019
HD Live streaming from Space Station
objects crossing your sky now

COSMOS 1360

Track COSMOS 1360 now!
10-day predictions
COSMOS 1360 is classified as:


NORAD ID: 13163
Int'l Code: 1982-040D
Perigee: 1,453.1 km
Apogee: 1,488.9 km
Inclination: 74.0 °
Period: 115.2 minutes
Semi major axis: 7841 km
RCS: 0.7161 m2 (medium)
Launch date: May 6, 1982
Source: Commonwealth of Independent States (former USSR) (CIS)
Launch site: PLESETSK MISSILE AND SPACE COMPLEX (PKMTR)
aabbcc
Your satellite tracking list
Your tracking list is empty




NASA's NSSDC Master Catalog

Two Line Element Set (TLE):
1 13163U 82040D   19017.87562373 -.00000029  00000-0 -85189-4 0  9995
2 13163  74.0135 308.5385 0022851 169.9803 246.3863 12.50154485399617
Source of the keplerian elements: AFSPC